Time,TemperatureF,DewpointF,PressureIn,WindDirection,WindDirectionDegrees,WindSpeedMPH,WindSpeedGustMPH,Humidity,HourlyPrecipIn,Conditions,Clouds,dailyrainin,SoftwareType,DateUTC
2013-06-02 00:02:00,66.0,58.0,29.86,NW,316,2.0,8.0,75,0.00,,,0.26,,2013-06-02 05:02:00,
2013-06-02 00:12:00,66.0,58.0,29.86,NW,316,2.0,8.0,75,0.00,,,0.26,,2013-06-02 05:12:00,
2013-06-02 00:22:00,66.0,58.0,29.86,NNW,333,3.0,8.0,75,0.00,,,0.26,,2013-06-02 05:22:00,
2013-06-02 00:32:00,66.0,58.0,29.86,West,281,2.0,8.0,76,0.00,,,0.20,,2013-06-02 05:32:00,
2013-06-02 00:42:00,66.0,58.0,29.86,West,281,2.0,8.0,76,0.00,,,0.20,,2013-06-02 05:42:00,
2013-06-02 00:52:00,66.0,59.0,29.87,WNW,286,0.0,5.0,77,0.00,,,0.20,,2013-06-02 05:52:00,
2013-06-02 01:01:00,65.0,58.0,29.87,WNW,293,2.0,5.0,77,0.00,,,0.20,,2013-06-02 06:01:00,
2013-06-02 01:12:00,65.0,58.0,29.87,WNW,293,2.0,5.0,77,0.00,,,0.20,,2013-06-02 06:12:00,
2013-06-02 01:21:00,65.0,58.0,29.87,WNW,286,0.0,4.0,79,0.00,,,0.20,,2013-06-02 06:21:00,
2013-06-02 01:32:00,64.0,58.0,29.87,West,275,3.0,9.0,80,0.00,,,0.13,,2013-06-02 06:32:00,
2013-06-02 01:42:00,64.0,58.0,29.87,West,275,3.0,9.0,80,0.00,,,0.13,,2013-06-02 06:42:00,
2013-06-02 01:52:00,64.0,58.0,29.86,WNW,283,4.0,9.0,80,0.00,,,0.13,,2013-06-02 06:52:00,
2013-06-02 02:01:00,64.0,58.0,29.86,NW,324,2.0,9.0,81,0.00,,,0.13,,2013-06-02 07:01:00,
2013-06-02 02:11:00,64.0,58.0,29.86,NW,324,2.0,9.0,81,0.00,,,0.13,,2013-06-02 07:11:00,
2013-06-02 02:21:00,64.0,58.0,29.87,West,267,4.0,9.0,81,0.00,,,0.13,,2013-06-02 07:21:00,
2013-06-02 02:32:00,64.0,58.0,29.87,West,265,1.0,7.0,82,0.00,,,0.05,,2013-06-02 07:32:00,
2013-06-02 02:42:00,64.0,58.0,29.87,West,265,1.0,7.0,82,0.00,,,0.05,,2013-06-02 07:42:00,
2013-06-02 02:52:00,63.0,57.0,29.87,West,270,2.0,5.0,82,0.00,,,0.05,,2013-06-02 07:52:00,
2013-06-02 03:01:00,63.0,57.0,29.87,WNW,289,3.0,7.0,82,0.00,,,0.05,,2013-06-02 08:01:00,
2013-06-02 03:12:00,63.0,57.0,29.87,WNW,289,3.0,7.0,82,0.00,,,0.05,,2013-06-02 08:12:00,
2013-06-02 03:21:00,63.0,57.0,29.88,WNW,287,4.0,10.0,82,0.00,,,0.05,,2013-06-02 08:21:00,
2013-06-02 03:32:00,63.0,57.0,29.87,NW,307,4.0,10.0,80,0.00,,,0.04,,2013-06-02 08:32:00,
2013-06-02 03:42:00,63.0,57.0,29.87,NW,307,4.0,10.0,80,0.00,,,0.04,,2013-06-02 08:42:00,
2013-06-02 03:52:00,63.0,56.0,29.87,West,267,4.0,7.0,79,0.00,,,0.04,,2013-06-02 08:52:00,
2013-06-02 04:01:00,63.0,57.0,29.88,NW,304,4.0,9.0,80,0.00,,,0.04,,2013-06-02 09:01:00,
2013-06-02 04:11:00,63.0,57.0,29.88,NW,304,4.0,9.0,80,0.00,,,0.04,,2013-06-02 09:11:00,
2013-06-02 04:21:00,63.0,57.0,29.87,NW,306,2.0,9.0,81,0.00,,,0.04,,2013-06-02 09:21:00,
2013-06-02 04:33:00,63.0,57.0,29.88,WNW,294,2.0,12.0,82,0.00,,,0.04,,2013-06-02 09:33:00,
2013-06-02 04:42:00,63.0,57.0,29.88,WNW,294,2.0,12.0,82,0.00,,,0.04,,2013-06-02 09:42:00,
2013-06-02 04:53:00,62.0,56.0,29.89,West,275,6.0,11.0,82,0.00,,,0.04,,2013-06-02 09:53:00,
2013-06-02 05:02:00,62.0,57.0,29.89,WNW,295,6.0,13.0,83,0.00,,,0.04,,2013-06-02 10:02:00,
2013-06-02 05:12:00,62.0,57.0,29.89,WNW,295,6.0,13.0,83,0.00,,,0.04,,2013-06-02 10:12:00,
2013-06-02 05:22:00,62.0,57.0,29.90,WNW,288,4.0,9.0,84,0.00,,,0.04,,2013-06-02 10:22:00,
2013-06-02 05:32:00,62.0,57.0,29.90,West,273,1.0,9.0,84,0.00,,,0.03,,2013-06-02 10:32:00,
2013-06-02 05:42:00,62.0,57.0,29.90,West,273,1.0,9.0,84,0.00,,,0.03,,2013-06-02 10:42:00,
2013-06-02 05:52:00,62.0,57.0,29.90,NW,305,2.0,8.0,85,0.00,,,0.03,,2013-06-02 10:52:00,
2013-06-02 06:02:00,62.0,57.0,29.91,WSW,250,2.0,7.0,85,0.00,,,0.03,,2013-06-02 11:02:00,
2013-06-02 06:12:00,62.0,57.0,29.91,WSW,250,2.0,7.0,85,0.00,,,0.03,,2013-06-02 11:12:00,
2013-06-02 06:21:00,62.0,57.0,29.91,WNW,294,2.0,6.0,85,0.00,,,0.03,,2013-06-02 11:21:00,
2013-06-02 06:32:00,62.0,57.0,29.90,NNW,331,2.0,8.0,85,0.00,,,0.03,,2013-06-02 11:32:00,
2013-06-02 06:42:00,62.0,57.0,29.90,NNW,331,2.0,8.0,85,0.00,,,0.03,,2013-06-02 11:42:00,
2013-06-02 06:52:00,62.0,57.0,29.91,NW,309,2.0,6.0,85,0.00,,,0.03,,2013-06-02 11:52:00,
2013-06-02 07:01:00,62.0,57.0,29.92,NW,325,2.0,10.0,85,0.00,,,0.03,,2013-06-02 12:01:00,
2013-06-02 07:11:00,62.0,57.0,29.92,NW,325,2.0,10.0,85,0.00,,,0.03,,2013-06-02 12:11:00,
2013-06-02 07:21:00,62.0,57.0,29.92,WNW,301,2.0,8.0,85,0.00,,,0.03,,2013-06-02 12:21:00,
2013-06-02 07:32:00,62.0,57.0,29.93,WNW,296,3.0,8.0,85,0.00,,,0.02,,2013-06-02 12:32:00,
2013-06-02 07:42:00,62.0,57.0,29.93,WNW,296,3.0,8.0,85,0.00,,,0.02,,2013-06-02 12:42:00,
2013-06-02 07:52:00,62.0,57.0,29.93,WNW,284,3.0,7.0,85,0.00,,,0.02,,2013-06-02 12:52:00,
2013-06-02 08:01:00,62.0,57.0,29.93,NNW,330,2.0,8.0,85,0.00,,,0.02,,2013-06-02 13:01:00,
2013-06-02 08:11:00,62.0,57.0,29.93,NNW,330,2.0,8.0,85,0.00,,,0.02,,2013-06-02 13:11:00,
2013-06-02 08:21:00,62.0,57.0,29.93,NW,312,3.0,6.0,85,0.00,,,0.02,,2013-06-02 13:21:00,
2013-06-02 08:32:00,62.0,57.0,29.94,West,261,3.0,8.0,85,0.00,,,0.02,,2013-06-02 13:32:00,
2013-06-02 08:42:00,62.0,57.0,29.94,West,261,3.0,8.0,85,0.00,,,0.02,,2013-06-02 13:42:00,
2013-06-02 08:52:00,62.0,57.0,29.94,West,279,4.0,8.0,85,0.00,,,0.02,,2013-06-02 13:52:00,
2013-06-02 09:02:00,62.0,57.0,29.95,WNW,287,3.0,7.0,85,0.00,,,0.02,,2013-06-02 14:02:00,
2013-06-02 09:11:00,62.0,57.0,29.95,WNW,287,3.0,7.0,85,0.00,,,0.02,,2013-06-02 14:11:00,
2013-06-02 09:21:00,62.0,57.0,29.94,West,277,1.0,6.0,84,0.00,,,0.02,,2013-06-02 14:21:00,
2013-06-02 09:32:00,63.0,58.0,29.95,WNW,289,1.0,8.0,84,0.00,,,0.00,,2013-06-02 14:32:00,
2013-06-02 09:42:00,63.0,58.0,29.95,WNW,289,1.0,8.0,84,0.00,,,0.00,,2013-06-02 14:42:00,
2013-06-02 09:52:00,63.0,58.0,29.95,NW,313,2.0,7.0,84,0.00,,,0.00,,2013-06-02 14:52:00,
2013-06-02 10:01:00,63.0,58.0,29.95,NW,322,1.0,8.0,83,0.00,,,0.00,,2013-06-02 15:01:00,
2013-06-02 10:11:00,63.0,58.0,29.95,NW,322,1.0,8.0,83,0.00,,,0.00,,2013-06-02 15:11:00,
2013-06-02 10:21:00,63.0,57.0,29.95,West,265,2.0,10.0,82,0.00,,,0.00,,2013-06-02 15:21:00,
2013-06-02 10:32:00,64.0,58.0,29.95,NW,309,2.0,11.0,82,0.00,,,0.00,,2013-06-02 15:32:00,
2013-06-02 10:43:00,65.0,58.0,29.96,NW,321,2.0,7.0,79,0.00,,,0.00,,2013-06-02 15:43:00,
2013-06-02 10:53:00,65.0,58.0,29.96,NW,321,2.0,7.0,79,0.00,,,0.00,,2013-06-02 15:53:00,
2013-06-02 11:03:00,65.0,58.0,29.95,NNE,16,3.0,8.0,79,0.00,,,0.00,,2013-06-02 16:03:00,
2013-06-02 11:13:00,65.0,58.0,29.95,NNE,16,3.0,8.0,79,0.00,,,0.00,,2013-06-02 16:13:00,
2013-06-02 11:23:00,66.0,58.0,29.96,WNW,296,3.0,9.0,76,0.00,,,0.00,,2013-06-02 16:23:00,
2013-06-02 11:33:00,67.0,58.0,29.96,NNW,340,1.0,7.0,74,0.00,,,0.00,,2013-06-02 16:33:00,
2013-06-02 11:42:00,67.0,58.0,29.96,NNW,340,1.0,7.0,74,0.00,,,0.00,,2013-06-02 16:42:00,
2013-06-02 11:52:00,66.0,58.0,29.96,WNW,282,2.0,6.0,75,0.00,,,0.00,,2013-06-02 16:52:00,
2013-06-02 12:02:00,67.0,58.0,29.96,NW,306,2.0,6.0,73,0.00,,,0.00,,2013-06-02 17:02:00,
2013-06-02 12:12:00,67.0,58.0,29.96,NW,306,2.0,6.0,73,0.00,,,0.00,,2013-06-02 17:12:00,
2013-06-02 12:22:00,67.0,59.0,29.96,West,277,1.0,10.0,75,0.00,,,0.00,,2013-06-02 17:22:00,
2013-06-02 12:32:00,68.0,59.0,29.97,North,350,0.0,7.0,73,0.00,,,0.00,,2013-06-02 17:32:00,
2013-06-02 12:42:00,69.0,59.0,29.97,NNW,348,2.0,8.0,71,0.00,,,0.00,,2013-06-02 17:42:00,
2013-06-02 12:52:00,69.0,59.0,29.97,NNW,348,2.0,8.0,71,0.00,,,0.00,,2013-06-02 17:52:00,
2013-06-02 13:01:00,68.0,59.0,29.97,NW,304,3.0,8.0,72,0.00,,,0.00,,2013-06-02 18:01:00,
2013-06-02 13:11:00,68.0,59.0,29.97,NW,304,3.0,8.0,72,0.00,,,0.00,,2013-06-02 18:11:00,
2013-06-02 13:21:00,67.0,58.0,29.97,NW,320,2.0,7.0,73,0.00,,,0.00,,2013-06-02 18:21:00,
2013-06-02 13:32:00,67.0,58.0,29.98,WNW,292,2.0,6.0,72,0.00,,,0.00,,2013-06-02 18:32:00,
2013-06-02 13:42:00,66.0,58.0,29.97,NNW,333,0.0,7.0,75,0.00,,,0.00,,2013-06-02 18:42:00,
2013-06-02 13:52:00,66.0,58.0,29.97,NNW,333,0.0,7.0,75,0.00,,,0.00,,2013-06-02 18:52:00,
2013-06-02 14:01:00,67.0,58.0,29.97,NW,307,2.0,7.0,74,0.00,,,0.00,,2013-06-02 19:01:00,
2013-06-02 14:11:00,67.0,58.0,29.97,NW,307,2.0,7.0,74,0.00,,,0.00,,2013-06-02 19:11:00,
2013-06-02 14:21:00,67.0,58.0,29.97,North,355,2.0,5.0,73,0.00,,,0.00,,2013-06-02 19:21:00,
2013-06-02 14:32:00,67.0,58.0,29.98,West,265,3.0,9.0,72,0.00,,,0.00,,2013-06-02 19:32:00,
2013-06-02 14:42:00,67.0,58.0,29.98,West,265,3.0,9.0,72,0.00,,,0.00,,2013-06-02 19:42:00,
2013-06-02 14:52:00,66.0,57.0,29.98,NW,314,0.0,6.0,74,0.00,,,0.00,,2013-06-02 19:52:00,
2013-06-02 15:02:00,66.0,57.0,29.97,NW,307,2.0,6.0,74,0.00,,,0.00,,2013-06-02 20:02:00,
2013-06-02 15:11:00,66.0,57.0,29.97,NW,307,2.0,6.0,74,0.00,,,0.00,,2013-06-02 20:11:00,
2013-06-02 15:22:00,66.0,57.0,29.98,West,264,2.0,6.0,74,0.00,,,0.00,,2013-06-02 20:22:00,
2013-06-02 15:32:00,67.0,58.0,29.98,NNW,347,1.0,6.0,73,0.00,,,0.00,,2013-06-02 20:32:00,
2013-06-02 15:42:00,67.0,58.0,29.98,NNW,347,1.0,6.0,73,0.00,,,0.00,,2013-06-02 20:42:00,
2013-06-02 15:52:00,67.0,58.0,29.98,NNW,327,1.0,8.0,72,0.00,,,0.00,,2013-06-02 20:52:00,
2013-06-02 16:01:00,67.0,58.0,29.98,NNW,337,4.0,7.0,72,0.00,,,0.00,,2013-06-02 21:01:00,
2013-06-02 16:12:00,67.0,58.0,29.98,NNW,337,4.0,7.0,72,0.00,,,0.00,,2013-06-02 21:12:00,
2013-06-02 16:21:00,66.0,57.0,29.98,NNW,337,3.0,9.0,72,0.00,,,0.00,,2013-06-02 21:21:00,
2013-06-02 16:33:00,66.0,56.0,29.98,North,5,3.0,9.0,71,0.00,,,0.00,,2013-06-02 21:33:00,
2013-06-02 16:42:00,66.0,56.0,29.98,North,5,3.0,9.0,71,0.00,,,0.00,,2013-06-02 21:42:00,
2013-06-02 16:53:00,65.0,56.0,29.98,North,355,1.0,5.0,73,0.00,,,0.00,,2013-06-02 21:53:00,
2013-06-02 17:03:00,65.0,55.0,29.97,NW,319,2.0,9.0,71,0.00,,,0.00,,2013-06-02 22:03:00,
2013-06-02 17:12:00,65.0,55.0,29.97,NW,319,2.0,9.0,71,0.00,,,0.00,,2013-06-02 22:12:00,
2013-06-02 17:23:00,66.0,57.0,29.98,NNW,328,3.0,6.0,72,0.00,,,0.00,,2013-06-02 22:23:00,
2013-06-02 17:33:00,65.0,56.0,29.98,NE,43,5.0,10.0,72,0.00,,,0.00,,2013-06-02 22:33:00,
2013-06-02 17:42:00,65.0,56.0,29.98,NE,43,5.0,10.0,72,0.00,,,0.00,,2013-06-02 22:42:00,
2013-06-02 17:52:00,65.0,56.0,29.97,NNW,329,2.0,10.0,73,0.00,,,0.00,,2013-06-02 22:52:00,
2013-06-02 18:02:00,65.0,55.0,29.97,NNW,346,1.0,8.0,71,0.00,,,0.00,,2013-06-02 23:02:00,
2013-06-02 18:12:00,65.0,55.0,29.97,NNW,346,1.0,8.0,71,0.00,,,0.00,,2013-06-02 23:12:00,
2013-06-02 18:22:00,65.0,56.0,29.97,NNW,327,2.0,6.0,72,0.00,,,0.00,,2013-06-02 23:22:00,
2013-06-02 18:32:00,65.0,56.0,29.98,NNW,338,2.0,6.0,73,0.00,,,0.00,,2013-06-02 23:32:00,
2013-06-02 18:42:00,65.0,56.0,29.98,NNW,338,2.0,6.0,73,0.00,,,0.00,,2013-06-02 23:42:00,
2013-06-02 18:52:00,65.0,57.0,29.98,NNW,331,0.0,6.0,75,0.00,,,0.00,,2013-06-02 23:52:00,
2013-06-02 19:01:00,64.0,56.0,29.98,North,349,1.0,5.0,76,0.00,,,0.00,,2013-06-03 00:01:00,
2013-06-02 19:12:00,64.0,56.0,29.98,North,349,1.0,5.0,76,0.00,,,0.00,,2013-06-03 00:12:00,
2013-06-02 19:21:00,64.0,56.0,29.98,North,5,1.0,4.0,75,0.00,,,0.00,,2013-06-03 00:21:00,
2013-06-02 19:32:00,64.0,56.0,29.98,North,5,1.0,5.0,75,0.00,,,0.00,,2013-06-03 00:32:00,
2013-06-02 19:42:00,64.0,56.0,29.98,North,5,1.0,5.0,75,0.00,,,0.00,,2013-06-03 00:42:00,
2013-06-02 19:51:00,64.0,56.0,29.98,North,350,2.0,5.0,75,0.00,,,0.00,,2013-06-03 00:51:00,
2013-06-02 20:01:00,63.0,55.0,29.98,North,355,1.0,5.0,75,0.00,,,0.00,,2013-06-03 01:01:00,
2013-06-02 20:11:00,63.0,55.0,29.98,North,355,1.0,5.0,75,0.00,,,0.00,,2013-06-03 01:11:00,
2013-06-02 20:21:00,63.0,55.0,29.98,North,5,3.0,11.0,75,0.00,,,0.00,,2013-06-03 01:21:00,
2013-06-02 20:32:00,63.0,55.0,29.98,North,355,1.0,5.0,76,0.00,,,0.00,,2013-06-03 01:32:00,
2013-06-02 20:42:00,63.0,55.0,29.98,North,355,1.0,5.0,76,0.00,,,0.00,,2013-06-03 01:42:00,
2013-06-02 20:52:00,62.0,55.0,29.98,NNW,348,2.0,8.0,77,0.00,,,0.00,,2013-06-03 01:52:00,
2013-06-02 21:02:00,62.0,55.0,29.98,NNW,328,4.0,9.0,78,0.00,,,0.00,,2013-06-03 02:02:00,
2013-06-02 21:12:00,62.0,55.0,29.98,NNW,328,4.0,9.0,78,0.00,,,0.00,,2013-06-03 02:12:00,
2013-06-02 21:22:00,61.0,54.0,29.99,NNW,345,4.0,10.0,79,0.00,,,0.00,,2013-06-03 02:22:00,
2013-06-02 21:32:00,61.0,55.0,29.99,North,355,3.0,8.0,81,0.00,,,0.00,,2013-06-03 02:32:00,
2013-06-02 21:42:00,61.0,55.0,29.99,North,355,3.0,8.0,81,0.00,,,0.00,,2013-06-03 02:42:00,
2013-06-02 21:52:00,61.0,55.0,30.00,North,355,4.0,7.0,81,0.00,,,0.00,,2013-06-03 02:52:00,
2013-06-02 22:02:00,61.0,54.0,30.01,North,5,3.0,7.0,79,0.00,,,0.00,,2013-06-03 03:02:00,
2013-06-02 22:12:00,61.0,54.0,30.01,North,5,3.0,7.0,79,0.00,,,0.00,,2013-06-03 03:12:00,
2013-06-02 22:22:00,61.0,54.0,30.01,NNE,32,2.0,7.0,78,0.00,,,0.00,,2013-06-03 03:22:00,
2013-06-02 22:33:00,60.0,53.0,30.01,NNW,331,2.0,5.0,79,0.00,,,0.00,,2013-06-03 03:33:00,
2013-06-02 22:43:00,60.0,53.0,30.01,NNW,331,2.0,5.0,79,0.00,,,0.00,,2013-06-03 03:43:00,
2013-06-02 22:53:00,60.0,53.0,30.01,NNE,16,1.0,7.0,78,0.00,,,0.00,,2013-06-03 03:53:00,
2013-06-02 23:03:00,60.0,53.0,30.01,North,350,2.0,5.0,78,0.00,,,0.00,,2013-06-03 04:03:00,
2013-06-02 23:13:00,60.0,53.0,30.01,North,350,2.0,5.0,78,0.00,,,0.00,,2013-06-03 04:13:00,
2013-06-02 23:23:00,60.0,53.0,30.01,NE,36,0.0,6.0,78,0.00,,,0.00,,2013-06-03 04:23:00,
2013-06-02 23:33:00,60.0,53.0,30.01,North,9,0.0,3.0,78,0.00,,,0.00,,2013-06-03 04:33:00,
2013-06-02 23:42:00,60.0,53.0,30.01,North,9,0.0,3.0,78,0.00,,,0.00,,2013-06-03 04:42:00,
2013-06-02 23:53:00,60.0,53.0,30.01,North,355,0.0,2.0,79,0.00,,,0.00,,2013-06-03 04:53:00,